This is the latest recevied weather packets stored in our database for station/object N2ZVN. If no packets are shown the sender has not sent any weather packets the latest 10 day(s).
| Time | Temp. | Humidity | Pressure | Rain* | Wind** | Luminosity | Snow |
|---|---|---|---|---|---|---|---|
| 1777994300 | 20° C | 56% | 1003.6 hPa | 0 mm | - | 224 W/m² | - |
| 1777993997 | 20° C | 55% | 1003.6 hPa | 0 mm | - | 239 W/m² | - |
| 1777993694 | 20° C | 55% | 1003.3 hPa | 0 mm | - | 256 W/m² | - |
| 1777993391 | 20° C | 55% | 1003.2 hPa | 0 mm | - | 242 W/m² | - |
| 1777993085 | 19.44° C | 54% | 1003.2 hPa | 0 mm | - | 231 W/m² | - |
| 1777992784 | 19.44° C | 55% | 1003.4 hPa | 0 mm | - | 193 W/m² | - |
| 1777992481 | 19.44° C | 57% | 1003.7 hPa | 0 mm | - | 125 W/m² | - |
| 1777992180 | 19.44° C | 56% | 1003.5 hPa | 0 mm | - | 117 W/m² | - |
| 1777991876 | 19.44° C | 57% | 1003.2 hPa | 0 mm | - | 108 W/m² | - |
| 1777991574 | 19.44° C | 56% | 1003.5 hPa | 0 mm | - | 124 W/m² | - |
| 1777991270 | 19.44° C | 57% | 1003.4 hPa | 0 mm | - | 108 W/m² | - |
| 1777990967 | 19.44° C | 57% | 1003.2 hPa | 0 mm | - | 121 W/m² | - |
| 1777990665 | 19.44° C | 56% | 1003.3 hPa | 0 mm | - | 131 W/m² | - |
| 1777990363 | 19.44° C | 56% | 1003.4 hPa | 0 mm | - | 130 W/m² | - |
| 1777990058 | 19.44° C | 56% | 1003.2 hPa | 0 mm | - | 138 W/m² | - |
| 1777989755 | 19.44° C | 56% | 1003.2 hPa | 0 mm | - | 107 W/m² | - |
| 1777989452 | 20° C | 56% | 1003.2 hPa | 0 mm | - | 97 W/m² | - |
| 1777989148 | 20.56° C | 55% | 1003.3 hPa | 0 mm | - | 155 W/m² | - |
| 1777988844 | 20.56° C | 55% | 1003 hPa | 0 mm | - | 141 W/m² | - |
| 1777988542 | 20.56° C | 54% | 1002.8 hPa | 0 mm | - | 170 W/m² | - |
| 1777988238 | 20.56° C | 54% | 1002.8 hPa | 0 mm | - | 129 W/m² | - |
| 1777987935 | 21.11° C | 54% | 1002.5 hPa | 0 mm | - | 124 W/m² | - |
| 1777987630 | 21.11° C | 54% | 1002.5 hPa | 0 mm | - | 135 W/m² | - |
| 1777987328 | 20.56° C | 53% | 1002.4 hPa | 0 mm | - | 203 W/m² | - |
| 1777987025 | 20.56° C | 54% | 1002.3 hPa | 0 mm | - | 172 W/m² | - |
* Rain latest hour (hover to see other rain measurements)
** Current wind speed in m/s (hover to see current wind gust speed)